Location: Newark
(35.5300°N, 14.3000°E)
Time: 01:30:38
(UTC+00:00)

Transit 4A - Pass Details

Date: 28 November 2019
Orbit: 871 x 973 km, 66.8° (Epoch: 23 January)

Event Time Altitude Azimuth Distance (km) Brightness Sun altitude
Exits shadow 05:01:02 10° 314° (NW) 2,564 9.7 -10.1°
Reaches altitude 10° 05:01:08 10° 313° (NW) 2,532 9.6 -10.1°
Maximum altitude 05:06:16 33° 252° (WSW) 1,424 8.5 -9.1°
Drops below altitude 10° 05:11:23 10° 189° (S) 2,510 10.3 -8.2°
Sets 05:14:04 0° 180° (S) 3,448 11.2 -7.6°
